O'Neill, NE

6:04 PM CST on February 08, 2016 (GMT -0600)
The O'Neill Municipal-Baker

Weather History for KONL - May, 2014

Change the Weather History Date:

Saturday, May 3, 2014

  Actual Average Record
Temperature  
Mean Temperature 52 °F -  
Max Temperature 66 °F 66 °F 87 °F (1955)
Min Temperature 39 °F 40 °F 20 °F (1954)
Degree Days  
Heating Degree Days 13    
Growing Degree Days 2 (Base 50)    
Moisture  
Dew Point 38 °F    
Average Humidity 60    
Maximum Humidity 84    
Minimum Humidity 38    
Precipitation  
Precipitation 0.00 in - - ()
Sea Level Pressure  
Sea Level Pressure 29.93 in    
Wind  
Wind Speed 7 mph (North)    
Max Wind Speed 14 mph    
Max Gust Speed 16 mph    
Visibility 10 miles    
Events      
Averages and records for this station are not official NWS values.
T = Trace of Precipitation, MM = Missing Value Source: NWS Daily Summary

Daily Weather History Graph

Daily Weather History Graph

Search for Another Location

Airport or City:

Trip Planner

Search our weather history database for the weather conditions in past years. The results will help you decide how hot, cold, wet, or windy it might be!

Date:

Astronomy

May. 03, 2014 Rise Set
Actual Time 6:27 AM CDT 8:36 PM CDT
Civil Twilight 5:56 AM CDT 9:07 PM CDT
Nautical Twilight 5:18 AM CDT 9:46 PM CDT
Astronomical Twilight 4:36 AM CDT 10:28 PM CDT
Moon 9:57 AM CDT (5/3) 12:00 AM CDT (5/3)
Length of Visible Light 15h 11m
Length of Day
14h 09m
Waxing Crescent, 20% of the Moon is Illuminated
May 3
Waxing Crescent
May 6
First Quarter
May 14
Full
May 21
Last Quarter
May 28
New

Hourly Weather History & Observations

Time (CDT) Temp. Windchill Dew Point Humidity Pressure Visibility Wind Dir Wind Speed Gust Speed Precip Events Conditions
12:15 AM 45.7 °F 42.7 °F 33.8 °F 63% 29.90 in 10.0 mi WNW 5.8 mph - N/A   Clear
12:35 AM 44.6 °F 42.2 °F 33.8 °F 66% 29.91 in 10.0 mi West 4.6 mph - N/A   Clear
12:55 AM 43.2 °F 38.4 °F 33.8 °F 70% 29.91 in 10.0 mi WNW 8.1 mph - N/A   Clear
1:15 AM 43.2 °F 39.0 °F 34.0 °F 70% 29.92 in 10.0 mi West 6.9 mph - N/A   Clear
1:35 AM 42.4 °F 39.6 °F 33.8 °F 71% 29.92 in 10.0 mi West 4.6 mph - N/A   Clear
1:55 AM 41.9 °F 38.2 °F 33.8 °F 73% 29.92 in 10.0 mi West 5.8 mph - N/A   Clear
2:15 AM 42.8 °F 39.3 °F 34.3 °F 72% 29.92 in 10.0 mi WNW 5.8 mph - N/A   Clear
2:35 AM 43.7 °F 39.1 °F 35.2 °F 72% 29.92 in 10.0 mi WNW 8.1 mph - N/A   Clear
2:55 AM 43.0 °F 38.2 °F 35.6 °F 75% 29.91 in 10.0 mi WNW 8.1 mph - N/A   Clear
3:15 AM 40.5 °F 36.5 °F 34.7 °F 80% 29.91 in 10.0 mi WNW 5.8 mph - N/A   Clear
3:35 AM 40.6 °F 36.7 °F 34.9 °F 80% 29.92 in 10.0 mi West 5.8 mph - N/A   Clear
3:55 AM 40.5 °F 35.8 °F 35.1 °F 81% 29.92 in 10.0 mi West 6.9 mph - N/A   Clear
4:15 AM 40.5 °F 35.8 °F 34.9 °F 80% 29.93 in 10.0 mi West 6.9 mph - N/A   Clear
4:35 AM 40.1 °F 34.1 °F 35.1 °F 82% 29.93 in 10.0 mi West 9.2 mph - N/A   Clear
4:55 AM 41.2 °F 36.6 °F 35.6 °F 81% 29.93 in 10.0 mi West 6.9 mph - N/A   Clear
5:15 AM 39.2 °F 34.2 °F 34.7 °F 84% 29.93 in 10.0 mi West 6.9 mph - N/A   Clear
5:35 AM 40.3 °F 34.4 °F 35.6 °F 83% 29.93 in 10.0 mi West 9.2 mph - N/A   Clear
5:55 AM 41.2 °F 35.5 °F 35.8 °F 81% 29.95 in 10.0 mi WNW 9.2 mph - N/A   Clear
6:15 AM 41.9 °F 36.9 °F 35.6 °F 78% 29.93 in 10.0 mi WNW 8.1 mph - N/A   Clear
6:35 AM 41.7 °F 36.7 °F 35.6 °F 79% 29.94 in 10.0 mi NW 8.1 mph - N/A   Clear
6:55 AM 42.4 °F 37.5 °F 35.8 °F 77% 29.95 in 10.0 mi WNW 8.1 mph - N/A   Clear
7:15 AM 41.2 °F 39.2 °F 35.4 °F 80% 29.95 in 10.0 mi West 3.5 mph - N/A   Clear
7:35 AM 43.7 °F 41.1 °F 37.0 °F 77% 29.95 in 10.0 mi NW 4.6 mph - N/A   Clear
7:55 AM 45.5 °F 42.5 °F 37.6 °F 74% 29.94 in 10.0 mi WNW 5.8 mph - N/A   Clear
8:15 AM 46.4 °F 44.3 °F 38.5 °F 74% 29.95 in 10.0 mi West 4.6 mph - N/A   Clear
8:35 AM 48.4 °F - 38.3 °F 68% 29.95 in 10.0 mi NW 8.1 mph - N/A   Clear
8:55 AM 50.0 °F - 39.6 °F 67% 29.95 in 10.0 mi NNW 8.1 mph - N/A   Clear
9:15 AM 52.7 °F - 40.6 °F 64% 29.94 in 10.0 mi NNW 6.9 mph - N/A   Clear
9:35 AM 54.9 °F - 40.5 °F 58% 29.95 in 10.0 mi North 8.1 mph - N/A   Clear
9:55 AM 55.8 °F - 39.9 °F 55% 29.94 in 10.0 mi North 10.4 mph - N/A   Scattered Clouds
10:15 AM 54.9 °F - 40.1 °F 58% 29.95 in 10.0 mi North 10.4 mph - N/A   Mostly Cloudy
10:35 AM 54.0 °F - 39.9 °F 59% 29.96 in 10.0 mi North 6.9 mph - N/A   Mostly Cloudy
10:55 AM 55.4 °F - 41.0 °F 58% 29.96 in 10.0 mi NE 4.6 mph - N/A   Scattered Clouds
11:15 AM 55.9 °F - 40.1 °F 55% 29.95 in 10.0 mi North 3.5 mph - N/A   Mostly Cloudy
11:35 AM 57.0 °F - 39.6 °F 52% 29.95 in 10.0 mi Calm Calm - N/A   Mostly Cloudy
11:55 AM 58.6 °F - 40.6 °F 51% 29.96 in 10.0 mi NNE 3.5 mph - N/A   Scattered Clouds
12:15 PM 59.0 °F - 39.7 °F 49% 29.96 in 10.0 mi Calm Calm - N/A   Clear
12:35 PM 60.1 °F - 40.8 °F 49% 29.96 in 10.0 mi East 3.5 mph - N/A   Clear
12:55 PM 61.2 °F - 41.4 °F 48% 29.97 in 10.0 mi NNE 8.1 mph - N/A   Clear
1:15 PM 61.9 °F - 41.2 °F 47% 29.96 in 10.0 mi NNE 6.9 mph - N/A   Clear
1:35 PM 61.5 °F - 40.5 °F 46% 29.95 in 10.0 mi NE 8.1 mph - N/A   Clear
1:55 PM 62.8 °F - 39.2 °F 42% 29.95 in 10.0 mi North 5.8 mph - N/A   Clear
2:15 PM 62.6 °F - 37.9 °F 40% 29.94 in 10.0 mi Calm Calm - N/A   Clear
2:35 PM 63.0 °F - 38.5 °F 40% 29.93 in 10.0 mi East 8.1 mph - N/A   Clear
2:55 PM 63.5 °F - 38.7 °F 40% 29.93 in 10.0 mi East 4.6 mph - N/A   Clear
3:15 PM 63.9 °F - 39.2 °F 40% 29.93 in 10.0 mi East 5.8 mph - N/A   Clear
3:35 PM 64.0 °F - 38.8 °F 39% 29.92 in 10.0 mi Calm Calm - N/A   Scattered Clouds
3:55 PM 64.2 °F - 39.2 °F 40% 29.92 in 10.0 mi North 4.6 mph - N/A   Scattered Clouds
4:15 PM 64.9 °F - 39.4 °F 39% 29.92 in 10.0 mi Calm Calm - N/A   Clear
4:35 PM 65.5 °F - 39.2 °F 38% 29.92 in 10.0 mi Calm Calm - N/A   Clear
4:55 PM 65.3 °F - 41.2 °F 41% 29.93 in 10.0 mi NE 6.9 mph - N/A   Clear
5:15 PM 65.5 °F - 40.8 °F 41% 29.92 in 10.0 mi NNE 8.1 mph - N/A   Clear
5:35 PM 65.1 °F - 40.6 °F 41% 29.92 in 10.0 mi NNE 5.8 mph - N/A   Clear
5:55 PM 65.3 °F - 40.8 °F 41% 29.93 in 10.0 mi NE 10.4 mph - N/A   Clear
6:15 PM 65.5 °F - 41.5 °F 42% 29.92 in 10.0 mi ENE 9.2 mph - N/A   Clear
6:35 PM 64.8 °F - 41.0 °F 42% 29.92 in 10.0 mi NE 8.1 mph - N/A   Clear
6:55 PM 64.2 °F - 41.0 °F 43% 29.92 in 10.0 mi NE 10.4 mph - N/A   Clear
7:15 PM 63.5 °F - 41.4 °F 44% 29.93 in 10.0 mi NE 10.4 mph 16.1 mph N/A   Clear
7:35 PM 62.1 °F - 41.0 °F 46% 29.92 in 10.0 mi ENE 12.7 mph - N/A   Clear
7:55 PM 61.2 °F - 40.6 °F 47% 29.93 in 10.0 mi ENE 13.8 mph - N/A   Clear
8:15 PM 59.7 °F - 40.6 °F 49% 29.93 in 10.0 mi ENE 12.7 mph - N/A   Clear
8:35 PM 58.1 °F - 41.0 °F 53% 29.93 in 10.0 mi ENE 12.7 mph - N/A   Clear
8:55 PM 56.7 °F - 40.6 °F 55% 29.92 in 10.0 mi ENE 11.5 mph - N/A   Clear
9:15 PM 55.6 °F - 40.5 °F 57% 29.92 in 10.0 mi ENE 10.4 mph - N/A   Clear
9:35 PM 54.7 °F - 40.1 °F 58% 29.93 in 10.0 mi ENE 10.4 mph - N/A   Clear
9:55 PM 53.8 °F - 40.1 °F 60% 29.93 in 10.0 mi ENE 11.5 mph - N/A   Clear
10:15 PM 52.9 °F - 40.1 °F 62% 29.93 in 10.0 mi ENE 10.4 mph - N/A   Clear
10:35 PM 52.0 °F - 40.1 °F 64% 29.95 in 10.0 mi ENE 9.2 mph - N/A   Clear
10:55 PM 50.7 °F - 40.1 °F 67% 29.95 in 10.0 mi NE 8.1 mph - N/A   Clear
11:15 PM 50.0 °F - 39.7 °F 68% 29.95 in 10.0 mi ENE 9.2 mph - N/A   Clear
11:35 PM 49.8 °F - 39.4 °F 67% 29.95 in 10.0 mi ENE 8.1 mph - N/A   Clear
11:55 PM 50.0 °F - 38.8 °F 66% 29.95 in 10.0 mi ENE 10.4 mph - N/A   Clear